map of SKG home
Great Circle Mapper logo
SKG - Airport
Location
City:  Thessaloniki, Greece
Near (Alt.):Saloniki
Name:Makedonia
ICAO / IATA:LGTS / SKG

Details
Type:Airport (Aerodrome, Airfield)
Use:Public/Civil, International (customs port of entry)
Latitude:4031'11"N (40.519725)
Longitude:2258'15"E (22.970950)
Datum:WGS 1984
Elevation:22 ft (7 m)
Runways:2
Longest:8005 × 164 ft (2440 × 50 m), paved

Time
Time Zone:UTC+2 (DST+3)
Local Time:

Weather
METAR:LGTS 240520Z 00000KT 8000 FEW008 SCT080 BKN180 15/13 Q1008 NOSIG
TAF:LGTS 240500Z 2406/2506 34005KT 8000 SCT030
TEMPO 2408/2506 7000 RA FEW010 BKN025 PROB40
TEMPO 2410/2418 5000 TSRA FEW010 FEW018CB BKN025

Related Locations
Nearby:
Farthest:CHT: 11420 mi / 18379 km
Waitangi [Tuuta], Chatham Islands, NZ

Find:

   beyond  
but within

Other Information
Maps:
NOTAMs:
Links:
Sources:

  
flag of Greece   

Airport Diagram

Airport diagram for SKG

Airport diagram (OBSOLETE) from NGA

Sectional Chart

Flight Planning
at skyvector.com

Satellite Image

Google Maps Satellite View

 

Copyright © 2004-2014 Karl L. Swartz. All rights reserved.
The Great Circle Mapper name and logo are trademarks of the Great Circle Mapper.
All other trademarks mentioned herein belong to their respective owners.
Please see credits for attibutions and further copyright information.

  Follow gcmap on Facebook Follow gcmap on Twitter

hCard Microformat

Geo Microformat